This is the latest recevied weather packets stored in our database for station/object OK0BH-6. If no packets are shown the sender has not sent any weather packets the latest 10 day(s).
| Time | Temp. | Humidity | Pressure | Rain* | Wind** | Luminosity | Snow |
|---|---|---|---|---|---|---|---|
| 1787598592 | 20° C | 39% | 1019.7 hPa | - | - | - | - |
| 1787598017 | 20° C | 39% | 1019.8 hPa | - | - | - | - |
| 1787597442 | 20° C | 39% | 1019.8 hPa | - | - | - | - |
| 1787596867 | 20° C | 39% | 1019.9 hPa | - | - | - | - |
| 1787596292 | 20.56° C | 39% | 1019.9 hPa | - | - | - | - |
| 1787595717 | 20.56° C | 39% | 1020 hPa | - | - | - | - |
| 1787595143 | 21.11° C | 38% | 1020.1 hPa | - | - | - | - |
| 1787594568 | 21.67° C | 38% | 1020 hPa | - | - | - | - |
| 1787593993 | 22.22° C | 38% | 1020 hPa | - | - | - | - |
| 1787593418 | 22.22° C | 38% | 1020.1 hPa | - | - | - | - |
| 1787592843 | 22.78° C | 38% | 1020.1 hPa | - | - | - | - |
| 1787592268 | 22.78° C | 37% | 1020.1 hPa | - | - | - | - |
| 1787591693 | 23.89° C | 37% | 1020.2 hPa | - | - | - | - |
| 1787591118 | 24.44° C | 37% | 1020.3 hPa | - | - | - | - |
| 1787590544 | 25.56° C | 37% | 1020.3 hPa | - | - | - | - |
| 1787589969 | 26.11° C | 36% | 1020.4 hPa | - | - | - | - |
| 1787589394 | 26.67° C | 36% | 1020.4 hPa | - | - | - | - |
| 1787588819 | 27.22° C | 36% | 1020.4 hPa | - | - | - | - |
| 1787588244 | 27.22° C | 36% | 1020.6 hPa | - | - | - | - |
| 1787587669 | 27.22° C | 37% | 1020.6 hPa | - | - | - | - |
| 1787587094 | 27.22° C | 36% | 1020.8 hPa | - | - | - | - |
| 1787586519 | 27.78° C | 36% | 1020.8 hPa | - | - | - | - |
| 1787585945 | 28.33° C | 36% | 1021 hPa | - | - | - | - |
| 1787585370 | 27.78° C | 37% | 1021.1 hPa | - | - | - | - |
| 1787584795 | 27.78° C | 37% | 1021.1 hPa | - | - | - | - |
* Rain since midnight (hover to see other rain measurements)
** Current wind speed in m/s (hover to see current wind gust speed)